Home   Weather   Rio de Janeiro   Past weeks
Flag for Brazil

Past Weather in Rio de Janeiro, Rio de Janeiro, Brazil — Yesterday and Last 2 Weeks

Now
81 °F

Clear.


Feels Like: 87 °F
Forecast: 87 / 74 °F
Wind: 7 mph from Northwest

Location: Rio De Janeiro Airport

Current Time: Apr 3, 2020 at 1:52:43 am

Latest Report: Apr 2, 2020 at 11:00 pm


Visibility: 10 mi

Pressure: 29.74 "Hg

Humidity: 89%

Dew Point: 77 °F

Location of Rio de JaneiroLocation

Past Weather in Rio de Janeiro — Graph

°F

Rio de Janeiro Temperature Yesterday

Maximum temperature yesterday: 84 °F (at 3:00 pm)
Minimum temperature yesterday: 73 °F (at 6:00 am)
Average temperature yesterday: 80 °F

High & Low Weather Summary for the Past Weeks

 TemperatureHumidityPressure
High90 °F (Mar 19, 1:00 pm)100% (Mar 21, 6:00 am)30.12 "Hg (Mar 21, 6:00 am)
Low70 °F (Mar 24, 6:00 am)49% (Mar 25, 10:00 pm)29.68 "Hg (Mar 19, 4:00 pm)
Average77 °F81%29.95 "Hg
* Reported Mar 18 11:00 pm — Apr 2 11:00 pm, Rio de Janeiro. Weather by CustomWeather, © 2020

Note: Actual official high and low records may vary slightly from our data, if they occured in-between our weather recording intervals... More about our weather records

Rio de Janeiro Weather History for the Previous 24 Hours

Scroll right to see more
 ConditionsComfort  
Time TempWeatherWind HumidityBarometerVisibility
11:00 pm
Thu, Apr 2
81 °FClear.7 mph89%29.74 "Hg10 mi
10:00 pm82 °FClear.5 mph84%29.74 "Hg10 mi
9:00 pm82 °FClear.6 mph79%29.77 "Hg10 mi
8:00 pm84 °FClear.1 mph74%29.77 "Hg10 mi
7:00 pm81 °FClear.3 mph84%29.74 "Hg10 mi
6:00 pm81 °FClear.6 mph79%29.74 "Hg10 mi
5:00 pm84 °FSunny.8 mph70%29.74 "Hg10 mi
4:00 pm82 °FSunny.10 mph74%29.77 "Hg10 mi
3:00 pm84 °FSunny.12 mph70%29.77 "Hg10 mi
2:00 pm82 °FSunny.9 mph74%29.80 "Hg10 mi
1:00 pm82 °FPassing clouds.6 mph74%29.83 "HgN/A
12:00 pm81 °FPassing clouds.6 mph79%29.86 "HgN/A
11:00 am81 °FPassing clouds.8 mph74%29.92 "HgN/A
10:00 am79 °FPassing clouds.7 mph79%29.95 "HgN/A
9:00 am77 °FPassing clouds.3 mph83%29.95 "HgN/A
8:00 am77 °FPassing clouds.3 mph79%29.95 "HgN/A
7:00 am75 °FPassing clouds.2 mph89%29.95 "HgN/A
6:00 am73 °FPassing clouds.5 mph89%29.95 "HgN/A
Weather by CustomWeather, © 2020

See weather overview

Advertising